Overview Statistics Trail Chart Weather Telemetry Raw packets
 

This is the latest recevied weather packets stored in our database for station/object K4KMJ. If no packets are shown the sender has not sent any weather packets the latest 10 day(s).

<< 2 3 4 5 6 7 8 >>
Time Temp. Humidity Pressure Rain* Wind** Luminosity Snow
1788648472 28.33° C 89% 1014.9 hPa 0 mm - 71 W/m² -
1788648168 28.33° C 88% 1014.7 hPa 0 mm - 78 W/m² -
1788647863 28.33° C 88% 1014.5 hPa 0 mm - 79 W/m² -
1788647560 28.33° C 88% 1014.4 hPa 0 mm - 80 W/m² -
1788647256 28.33° C 88% 1014.6 hPa 0 mm - 82 W/m² -
1788646955 28.33° C 88% 1014.8 hPa 0 mm - 85 W/m² -
1788646651 28.33° C 88% 1014.9 hPa 0 mm - 88 W/m² -
1788646348 28.33° C 87% 1014.8 hPa 0 mm - 90 W/m² -
1788646043 28.33° C 87% 1014.4 hPa 0 mm - 94 W/m² -
1788645739 28.33° C 87% 1014.5 hPa 0 mm - 104 W/m² -
1788645438 28.89° C 86% 1014.2 hPa 0 mm - 108 W/m² -
1788645134 28.89° C 86% 1014.3 hPa 0 mm - 144 W/m² -
1788644830 28.89° C 85% 1014.1 hPa 0 mm - 116 W/m² -
1788644525 28.89° C 85% 1014.5 hPa 0 mm - 118 W/m² -
1788644220 28.89° C 85% 1014.5 hPa 0 mm - 120 W/m² -
1788643916 29.44° C 84% 1014.3 hPa 0 mm - 126 W/m² -
1788643611 29.44° C 85% 1014.6 hPa 0 mm - 157 W/m² -
1788643310 29.44° C 85% 1014.7 hPa 0 mm - 150 W/m² -
1788643005 29.44° C 83% 1014.7 hPa 0 mm - 157 W/m² -
1788642700 29.44° C 83% 1014.6 hPa 0 mm - 255 W/m² -
1788642397 30° C 82% 1014.4 hPa 0 mm - 268 W/m² -
1788642091 30° C 81% 1014.4 hPa 0 mm - 345 W/m² -
1788641785 31.11° C 77% 1014.6 hPa 0 mm - 405 W/m² -
1788641485 31.11° C 76% 1014.4 hPa 0 mm - 483 W/m² -
1788641184 31.67° C 76% 1014.3 hPa 0 mm - 483 W/m² -

* Rain latest hour (hover to see other rain measurements)
** Current wind speed in m/s (hover to see current wind gust speed)